www.pogodaiklimat.ru

Погода и климат >> Архив погоды >> Сенегал >> Dakar


АРХИВ ПОГОДЫ в Dakar

Время (UTC), дата Ветер
(напр.,м/с)
 
Видим.   Явления Облачность Т
(С)
Тd
(С)
f
(%)
Тe
(С)
Тes
(С)
Комфортность P
(гПа)
Po
(гПа)
Тmin
(С)
Tmax
(С)
R
(мм)
R24
(мм)
S
(см)
00 14.06 С 2 8000 м 4/4 400 м
[Sc]
+23.5 +21.2 87 +30 +30 очень
душно
1015.4 1012.1
03 14.06 С 1 8000 м 6/6 400 м
[Sc]
+23.2 +21.5 90 +31 +31 очень
душно
1014.5 1011.2
06 14.06 Ю 5 8000 м 3/3 400 м
[Sc]
+23.5 +21.9 91 +30 +30 очень
душно
1015.4 1012.2 +22.9
09 14.06 ЮЗ 3 10 км 8/0
[Ac trans Ci sp]
+25.0 +21.4 80 +32 +35 очень
душно
1015.1 1011.8
12 14.06 СЗ 4 10 км 8/1 400 м
[Sc Ac trans Ci sp]
+26.5 +22.7 80 +35 +42 очень
душно
1015.3 1012.1
15 14.06 СЗ 3 10 км 8/0
[Ac trans]
+26.2 +21.3 74 +33 +41 очень
душно
1014.9 1011.6
18 14.06 штиль 0 10 км 9/0
[Ac As]
+24.7 +21.4 82 +31 +33 очень
душно
1014.6 1011.3 +27.3
21 14.06 С 3 10 км 9/0
[Ac As]
+24.1 +21.6 86 +31 +31 очень
душно
1014.5 1011.2
00 15.06 С 2 8000 м 5/0
[Ac As]
+23.8 +22.0 90 +31 +31 очень
душно
1014.8 1011.5
03 15.06 С 3 8000 м 5/4 400 м
[Sc Ac trans]
+23.7 +22.1 91 +31 +31 очень
душно
1013.7 1010.5
06 15.06 С 2 8000 м 3/3 400 м
[Sc Ac trans]
+23.6 +22.0 91 +30 +30 очень
душно
1013.8 1010.5 +23.5
09 15.06 С 1 10 км 9/3 400 м
[Sc Ac As]
+24.3 +22.1 88 +32 +33 очень
душно
1014.9 1011.6
12 15.06 С 2 10 км в посл. час дождь 5/0
[Ac As]
+25.7 +22.5 83 +34 +47 очень
душно
1015.9 1012.6 0.0
15 15.06 СЗ 4 10 км 6/0
[Ac cast]
+26.6 +22.3 77 +35 +41 очень
душно
1015.1 1011.8
18 15.06 С 6 10 км 8/0
[Ac cast]
+25.0 +21.6 81 +32 +32 очень
душно
1014.2 1010.9 +26.9 0.0
21 15.06 С 5 8000 м 8/0
[Ac cast]
+23.9 +22.0 89 +31 +31 очень
душно
1014.5 1011.2
00 16.06 С 4 8000 м 8/8 400 м
[Sc]
+23.7 +21.8 89 +30 +30 очень
душно
1015.9 1012.6
03 16.06 С 4 8000 м 5/5 400 м
[Sc]
+23.2 +21.7 91 +31 +31 очень
душно
1014.9 1011.6
06 16.06 С 5 8000 м 4/4 400 м
[Sc]
+23.3 +21.7 91 +32 +32 очень
душно
1014.5 1011.2 +23.2 0.0
09 16.06 С 5 10 км 4/0
[Ac trans]
+25.0 +20.6 77 +31 +33 очень
душно
1016.1 1012.8
12 16.06 С 6 10 км 4/0
[Ac trans]
+26.7 +21.5 73 +34 +40 очень
душно
1016.8 1013.5
15 16.06 С 7 10 км ясно +26.9 +20.9 70 +34 +38 очень
душно
1016.0 1012.7
18 16.06 СЗ 7 10 км 3/0
[Ac trans]
+25.5 +20.8 75 +32 +32 очень
душно
1015.0 1011.7 +27.0
21 16.06 С 2 8000 м 3/0
[Ac trans]
+23.8 +20.3 81 +29 +29 душно 1016.1 1012.8
00 17.06 С 5 8000 м 4/3 400 м
[Sc Ac cast]
+23.5 +20.3 82 +29 +29 душно 1017.2 1014.0
03 17.06 СЗ 3 8000 м 5/1 400 м
[Sc Ac cast]
+23.0 +20.1 84 +30 +30 очень
душно
1015.9 1012.6
06 17.06 С 5 8000 м 5/0
[Ac cast]
+23.1 +19.9 82 +30 +30 очень
душно
1014.9 1011.6 +23.0
09 17.06 С 4 10 км 5/5 400 м
[Sc]
+24.5 +20.1 76 +30 +32 очень
душно
1016.8 1013.5
12 17.06 С 4 10 км 5/5 400 м
[Sc]
+25.9 +20.0 70 +32 +38 очень
душно
1017.5 1014.3
15 17.06 С 3 10 км 5/5 400 м
[Sc]
+26.0 +18.9 65 +31 +38 очень
душно
1016.8 1013.5
18 17.06 С 4 10 км 5/5 400 м
[Sc Ci sp]
+24.5 +18.6 70 +29 +30 душно 1015.9 1012.6 +26.5
21 17.06 С 2 8000 м 4/3 400 м
[Sc Ci sp]
+22.6 +18.7 79 +28 +28 душно 1017.0 1013.7
00 18.06 С 4 8000 м 4/4 400 м
[Sc]
+22.8 +19.5 82 +29 +29 очень
душно
1017.5 1014.2
03 18.06 С 4 8000 м 4/4 400 м
[Sc]
+22.3 +19.3 83 +28 +28 душно 1016.4 1013.1
06 18.06 С 6 8000 м 5/5 400 м
[Sc]
+22.5 +19.2 82 +28 +28 душно 1016.8 1013.5 +22.0
09 18.06 С 2 10 км 9/9 400 м
[Sc]
+23.5 +19.5 78 +29 +29 душно 1018.1 1014.8
12 18.06 С 3 10 км 6/3 450 м
[Cu med, cong Ac trans]
+25.3 +19.3 69 +30 +39 душно 1017.4 1014.1
15 18.06 С 3 10 км 8/8 450 м
[Cu med, cong]
+25.6 +19.1 67 +31 +34 очень
душно
1017.0 1013.7
18 18.06 С 3 10 км 8/6 450 м
[Cu med, cong Ac trans]
+24.1 +19.3 75 +29 +30 душно 1016.2 1012.9 +26.2
21 18.06 штиль 0 10 км 8/6 450 м
[Cu med, cong Ac trans]
+23.1 +19.2 79 +29 +29 очень
душно
1016.9 1013.6
00 19.06 С 2 8000 м 6/5 450 м
[Sc Ac trans]
+23.0 +19.1 79 +29 +29 очень
душно
1017.2 1013.9
03 19.06 С 3 8000 м 5/3 450 м
[Sc Ac trans]
+22.6 +19.5 83 +29 +29 очень
душно
1015.7 1012.4
06 19.06 С 2 8000 м 6/5 450 м
[Sc Ac trans]
+23.6 +19.7 79 +29 +29 душно 1015.8 1012.4 +22.6
09 19.06 СЗ 2 10 км 8/5 450 м
[Cu med, cong Ac trans]
+23.6 +19.9 80 +29 +31 душно 1016.4 1013.1
12 19.06 С 2 10 км 8/5 450 м
[Cu med, cong Ac trans]
+25.7 +20.2 72 +32 +38 очень
душно
1016.5 1013.2
15 19.06 СЗ 4 10 км 6/4 450 м
[Sc Ci sp]
+26.0 +20.7 73 +33 +39 очень
душно
1015.0 1011.7
18 19.06 СЗ 4 10 км 5/3 450 м
[Sc Ci sp]
+25.0 +20.5 76 +31 +33 очень
душно
1013.3 1010.1 +26.8
21 19.06 СЗ 3 8000 м 8/6 450 м
[Sc Ci sp]
+23.4 +20.3 83 +31 +31 очень
душно
1014.0 1010.7
00 20.06 С 3 8000 м 8/6 450 м
[Sc Ac trans]
+23.1 +20.5 85 +30 +30 очень
душно
1014.3 1011.1
03 20.06 С 3 8000 м 8/6 450 м
[Sc Ac trans]
+23.1 +20.5 85 +30 +30 очень
душно
1014.3 1011.1
06 20.06 С 3 8000 м 3/3 450 м
[Sc]
+22.9 +20.3 85 +30 +30 очень
душно
1013.4 1010.1 +22.6
09 20.06 СЗ 4 10 км 3/1 400 м
[Sc Ac trans]
+24.4 +20.6 79 +30 +33 очень
душно
1013.8 1010.5
12 20.06 СЗ 4 10 км 3/3 400 м
[Sc]
+26.2 +21.0 73 +33 +42 очень
душно
1014.2 1010.9
15 20.06 З 5 10 км 3/3 400 м
[Sc]
+26.5 +20.5 70 +33 +39 очень
душно
1013.1 1009.0
18 20.06 З 5 10 км 8/8 400 м
[Sc]
+25.6 +20.6 74 +32 +32 очень
душно
1012.6 1009.3 +26.8

 

Местоположение метеостанции Dakar (Сенегал): широта 14.73 долгота -17.50 высота над уровнем моря 24 м.

В архиве по умолчанию представлена погода в Dakar за последнюю неделю. Архивные данные за месяц целиком и за предыдущие месяцы, начиная с января 2011 года, Вы можете получить, выбрав интересующий диапазон дат из раскрывающегося списка и нажав кнопку "Ввод!".


*Определитесь, кто Вы:
робот инопланетянин человек

Внимание! Время в таблицах - всемирное. Для получения местного времени необходимо прибавить поправку, которая в Dakar равна 0 ч.

Смотрите также архив погоды в соседних городах и на ближайших метеорологических станциях:

Погода в Diourbel (Сенегал) (137 км)
Погода в Kaolack (Сенегал) (169 км)
Погода в Banjil Int Airport (Гамбия) (180 км)
Погода в Banjul Half-Die (Гамбия) (182 км)
Погода в Saint-Louis (Сенегал) (185 км)
Погода в Kerewan (Гамбия) (205 км)
Погода в Sapu (Гамбия) (213 км)
Погода в Sibanor (Гамбия) (219 км)
Погода в Jenoi (Гамбия) (250 км)
Погода в Kauur (Гамбия) (261 км)

Пояснения к столбцам:

Ветер - указаны скорость ветра в м/с - средняя за 10 мин, порывы в срок и между сроками (в фигурных скобках) и направление, откуда дует ветер: С - северный, СВ - северо-восточный, В - восточный, ЮВ - юго-восточный, Ю - южный, ЮЗ - юго-западный, З - западный, СЗ - северо-западный.
Видимость - горизонтальная дальность видимости в метрах или километрах. При видимости от 1 до 10 км при отсутствии осадков обычно наблюдается дымка, при ухудшении видимости до 1 км и менее - туман. В сухую погоду видимость может ухудшаться дымом, пылью или мглою.
Явления - указаны атмосферные явления, наблюдавшиеся в срок или в последний час перед сроком; фигурными скобками обозначены явления, наблюдавшиеся между сроками (за 1-3 часа до срока); квадратными скобками обозначены град или гололедные отложения с указанием их диаметра в мм.
Облачность - указаны через наклонную черту общая и нижняя облачность в баллах и высота нижней границы облаков в метрах; квадратными скобками обозначены формы облаков: Ci - перистые, Cs - перисто-слоистые, Cc - перисто-кучевые, Ac - высококучевые, As - высокослоистые, Sc - слоисто-кучевые, Ns - слоисто-дождевые, Cu - кучевые, Cb - кучево-дождевые. Подробнее классификацию облаков см. в Атласе облаков (PDF).
T - Температура воздуха - температура, измеренная на высоте 2 м над землей.
Td - Температура точки росы - температура, при понижении до которой содержащийся в воздухе водяной пар достигнет насыщения.
f - Относительная влажность воздуха - влажноcть воздуха, измеренная на высоте 2 м над землей.
Te - Эффективная температура - температура, которую ощущает одетый по сезону человек в тени. Характеристика душности погоды. При расчете учитывается влияние влажности воздуха и скорости ветра на теплоощущения человека.
Tes - Эффективная температура на солнце - температура, которую ощущает человек, с поправкой на солнечный нагрев. Характеристика знойности погоды. Зависит от высоты солнца над горизонтом, облачности и скорости ветра. Ночью, в пасмурную погоду, а также при ветре 12 м/с и более поправка равна нулю.
P - Атмосферное давление - приведенное к уровню моря атмосферное давление.
Po - Атмосферное давление - измеренное на уровне метеостанции атмосферное давление.
Tmin - Минимальная температура - минимум температуры воздуха на высоте 2 м над землей.
Tmax - Максимальная температура - максимум температуры воздуха на высоте 2 м над землей.
R - Количество осадков - Количество выпавших осадков за период времени, мм. При наведении курсора мыши на число - период времени, за который выпало указанное количество осадков.
R24 - Количество осадков - Количество выпавших осадков за 24 часа, мм.
S - Снежный покров - Высота снежного покрова, см. При наведении курсора мыши на число - состояние снежного покрова и степень покрытия местности в баллах.